User: anonymous   Login
Location: Newark
(53.3867°N, 14.6147°E)
Time: 06:26:47
(UTC+00:00)
Language:

Envisat - Orbit

View from above orbital plane
View from above orbital plane
View from above satellite
View from above satellite

Ground track
Ground track

The orbit data is extracted from the following two-line orbital elements,

1 27386U 02009A   20152.29672311  .00000022  00000-0  20651-4 0  9990
2 27386  98.1363 160.2488 0001263  88.7658 281.8473 14.37982142956151
Epoch (UTC): 31 May 2020 07:07:16
Eccentricity: 0.0001263
inclination: 98.1363°
perigee height: 764 km
apogee height: 766 km
right ascension of ascending node: 160.2488°
argument of perigee: 88.7658°
revolutions per day: 14.37982142
mean anomaly at epoch: 281.8473°
orbit number at epoch: 95615

The dashed part of the orbit path shows where the satellite is in the earth's shadow,  

DLR